Location: Jangalapalle
(16.8036°N, 80.6370°E)
Time: 11:47:10
(UTC+00:00)

SL-08 R/B - Pass Details

Date: 05 August 2024
Orbit: 950 x 1017 km, 82.9° (Epoch: 09 September)

Event Time Altitude Azimuth Distance (km) Brightness Sun altitude
Exits shadow 14:59:20 21° 189° (S) 1,972 5.9 -25.4°
Maximum altitude 15:03:32 80° 273° (W) 967 4.4 -26.3°
Drops below altitude 10° 15:09:40 10° 1° (N) 2,684 7.1 -27.6°
Sets 15:12:11 0° 3° (N) 3,638 7.8 -28.1°
